Back to catalog

STARLINK-5551

AliveCommunicationsSSO
NORAD 56359·PAYLOAD·🇺🇸 United States

Launched Apr 27, 2023 from Vandenberg Space Force Base

Loading…

Next Passes (next 24 hours)

TLE

FreshSource: CelesTrak SupGP

Epoch: Sep 14, 2026, 21:17 UTC

1 56359C 23058AU  26257.88729167  .00802940  00000+0  45298-1 0  2574
2 56359  97.2857 251.9496 0001699  81.9953 137.9257 15.12842564    17

Track STARLINK-5551 in real time with AllMySat

Download on the App Store